Regional Weather Roundup
Issued by NWS

Home | Current Version | Previous Version | Graphics & Text | Print | Product List | Glossary On
Versions: 1 2 3 4 5 6 7 8 9 10 11 12 13 14 15 16 17 18 19 20 21 22 23 24 25 26 27 28 29 30 31 32 33 34 35 36 37 38 39 40 41 42 43 44 45 46 47 48 49 50
000
ASUS43 KDTX 292110
RWRMI
MICHIGAN HOURLY REGIONAL WEATHER ROUNDUP
NATIONAL WEATHER SERVICE DETROIT/PONTIAC MI
500 PM EDT FRI MAY 29 2015

NOTE: "FAIR" INDICATES FEW OR NO CLOUDS BELOW 12,000 FEET WITH NO
SIGNIFICANT WEATHER AND/OR OBSTRUCTION TO VISIBILITY.

MIZ047>049-052>055-059>063-066>070-074>076-081>083-292200-
SOUTHEAST LOWER MICHIGAN

CITY           SKY/WX    TMP DP  RH WIND       PRES   REMARKS
ADRIAN         MOSUNNY   83  65  54 S12       30.02F
ALMA           MOSUNNY   84  60  45 SW13      29.96F
ANN ARBOR      MOSUNNY   81  64  56 S9        30.02F
BAD AXE        MOSUNNY   79  62  55 S15G29    30.00F
CARO           MOSUNNY   82  67  59 SE14      29.99F
DETROIT CITY   SUNNY     79  67  66 S14       30.04F
DETROIT        PTSUNNY   82  69  64 S9        30.04F
FLINT          MOSUNNY   82  65  56 S10G20    30.00F
GROSSE ILE     MOSUNNY   73  70  88 S5        30.03F
HILLSDALE      MOSUNNY   83  61  47 S10G18    30.03F
HOWELL         MOSUNNY   80  63  56 S9        30.01F

CITY           SKY/WX    TMP DP  RH WIND       PRES   REMARKS
JACKSON        MOSUNNY   81  63  54 S14       30.01F
LAMBERTVILLE   MOSUNNY   82  64  54 S7        30.03F
LANSING        MOSUNNY   82  63  52 S13       29.99F
LAPEER         FAIR      79  64  60 S12G18    30.02F
MASON          PTSUNNY   79  64  59 S8        30.00F
MONROE         MOSUNNY   79  68  69 SE8       30.02F
MT. CLEMENS    PTSUNNY   74  69  83 SE9       30.03F
PONTIAC        CLOUDY    79  66  64 S10       30.02F
PORT HOPE        N/A     81  63  54 S16G28    29.97F
PORT HURON     MOSUNNY   75  68  78 S8        30.04F
TRI CITIES     PTSUNNY   85  64  49 S13       29.97F
MIDLAND        FAIR      85  61  43 SW9G18    29.95F
TROY           MOSUNNY   80  68  66 SW6       30.05F
SAGINAW HB     MOSUNNY   82  61  47 S16       29.97F
$$
MIZ043>046-050>051-056>058-064>065-071>073-077>080-292200-
SOUTHWEST LOWER MICHIGAN

CITY           SKY/WX    TMP DP  RH WIND       PRES   REMARKS
BATTLE CREEK   PTSUNNY   82  63  52 S13       29.99F
BENTON HARBOR  MOSUNNY   77  68  73 SE3       29.96F
BIG RAPIDS     PTSUNNY   79  61  54 S7        29.96F
COLDWATER      MOSUNNY   81  59  45 S8G16     30.00F
FREMONT        PTSUNNY   80  60  50 SW12G17   29.96F
HOLLAND        CLOUDY    74  69  85 S5        29.98F
GRAND RAPIDS   RAIN      71  69  93 W9        30.00S FOG
IONIA          PTSUNNY   83  58  42 S14       29.97S
KALAMAZOO      LGT RAIN  78  63  59 S10       29.99F
LUDINGTON      PTSUNNY   76  65  69 S12       29.94F
MARSHALL       MOSUNNY   84  62  48 S7G17     29.99F
MOUNT PLEASANT PTSUNNY   84  59  42 S9G17     29.95F
MUSKEGON       PTSUNNY   75  65  70 S12       29.97S
SOUTH HAVEN    PTSUNNY   74  68  80 S5        29.97F
$$
MIZ016>042-292200-
NORTHERN LOWER MICHIGAN

CITY           SKY/WX    TMP DP  RH WIND       PRES   REMARKS
ALPENA         TSTM      68  62  81 SW9G20    30.01R
BEAVER ISLAND  CLOUDY    68  62  79 SE10G17   29.92F
BELLAIRE       PTSUNNY   75  65  71 S3        29.94F
CADILLAC       PTSUNNY   78  66  66 S13       29.96F
CHARLEVOIX     CLOUDY    74  65  75 S7        29.96F
FRANKFORT      PTSUNNY   72  60  65 W5        29.93F
GAYLORD        PTSUNNY   70  66  87 S9        29.98F
GRAYLING       PTSUNNY   71  65  82 CALM      29.98F
HARBOR SPRINGS PTSUNNY   72  65  79 S6        29.94F
HOUGHTON LAKE  PTSUNNY   76  61  59 NE3       29.97F
MANISTEE       PTSUNNY   75  64  69 SW7       29.94F
OSCODA         PTSUNNY   82  61  49 SE8G16    29.96F
PELLSTON       CLOUDY    71  64  78 S7        29.95F
ROGERS CITY    LGT RAIN  68  65  90 S8        29.98F
TRAVERSE CITY  CLOUDY    79  66  64 S7        29.92F
$$
MIZ007>008-015-292200-
EASTERN UPPER MICHIGAN

CITY           SKY/WX    TMP DP  RH WIND       PRES   REMARKS
KINROSS        CLOUDY    68  64  88 S9        29.94F
MACKINAC ISLAN CLOUDY    69  62  78 SE5       29.93F
NEWBERRY       CLOUDY    66  60  80 S16       29.91F
S. S. MARIE    CLOUDY    66  61  84 SE10      29.93F
MUNISING         N/A     74  60  61 S15G31    29.83F
$$
MIZ004>006-011>014-085-292200-
CENTRAL UPPER MICHIGAN

CITY           SKY/WX    TMP DP  RH WIND       PRES   REMARKS
MANISTIQUE     FOG       51  49  94 S8        29.91F VSB 1/4
ESCANABA       PTSUNNY   66  57  72 S9        29.87F
MENOMINEE      PTSUNNY   75  63  64 S12       29.87S
SAWYER-GWINN   CLOUDY    70  63  78 NW10      29.85S
$$
MIZ001>003-009>011-084-292200-
WESTERN UPPER MICHIGAN

CITY           SKY/WX    TMP DP  RH WIND       PRES   REMARKS
IRON MOUNTAIN  PTSUNNY   78  61  55 SW8       29.84F
HOUGHTON       CLOUDY    61  58  90 W22       29.86R
COPPER HARBOR    N/A     59  58  96 N16G25    29.84S
IRONWOOD       CLOUDY    63  61  94 NW9       29.88S
$$

ABBREVIATIONS USED IN REMARKS
   TC - TEMPERATURE IN CELSIUS
  WCI - WIND CHILL INDEX
   HX - HEAT INDEX
  VSB - VISIBILITY




USA.gov is the U.S. government's official web portal to all federal, state and local government web resources and services.